Location: Aldenham
(51.6667°N, 0.3500°W)
Time: 17:32:41
(UTC+00:00)

Vanguard 2 Rocket - Pass Details

Date: 17 February 2026
Orbit: 553 x 3286 km, 32.9° (Epoch: 11 March)

Event Time Altitude Azimuth Distance (km) Brightness Sun altitude
Rises 10:14:08 0° 191° (S) 7,243 12.2 21.2°
Reaches altitude 10° 10:22:26 10° 173° (S) 6,164 12.6 21.9°
Maximum altitude 10:31:21 15° 145° (SE) 5,402 13.2 22.6°
Drops below altitude 10° 10:39:12 10° 116° (ESE) 5,375 11.8 23.1°
Sets 10:45:20 0° 96° (E) 5,878 11.4 23.5°
